Location: Newark
(44.6768°N, 22.5302°E)
Time: 01:52:45
(UTC+00:00)

CUTE 1.7 + AOD 2 - Pass Details

Date: 05 July 2022
Orbit: 589 x 608 km, 97.7° (Epoch: 08 August)

Event Time Altitude Azimuth Distance (km) Brightness Sun altitude
Rises 01:13:41 0° 31° (NNE) 2,844 ? -13.4°
Reaches altitude 10° 01:16:47 10° 56° (NE) 1,932 ? -13.0°
Maximum altitude 01:19:07 15° 90° (E) 1,646 ? -12.8°
Drops below altitude 10° 01:21:26 10° 124° (SE) 1,918 ? -12.5°
Sets 01:24:29 0° 149° (SSE) 2,810 ? -12.2°
